Puyallup, WA
on Monday, November 5, 2012

Monday
Previous Day Next Day
Daily Summary
 ActualAverage (KSEA)Record (KSEA)
Temperature
Mean Temperature °F 48°F  
Max Temperature 59°F 53°F 65°F (1949)
Min Temperature 41°F 42°F 31°F (1961)
Degree Days
Heating Degree Days 15 17  
Month to date heating degree days 84  
Since 1 July heating degree days 681  
Cooling Degree Days 0 0  
Month to date cooling degree days 0  
Year to date cooling degree days 189  
Moisture
Dew Point 48°F   
Average Humidity 87    
Maximum Humidity 100    
Minimum Humidity 48    
Precipitation
Precipitation 0.20 in 0.20 in 1.01 in (1988)
Month to date precipitation 0.98  
Year to date precipitation 26.55  
Snow
Snow 0.00 in in T in (1973)
Month to date snowfall  
Since 1 July snowfall  
Snow Depth in   
Wind
Wind Speed 1 mph   
Max Wind Speed 6 mph   
Max Gust Speed mph   
Visibility 8 miles   
Events Rain   

Key: T is trace of precipitation, MM is missing value
Source: NWS Daily Summary
Time(PST)TemperatureDew PointHumidity Pressure Visibility Wind DirectionWind SpeedGust SpeedPrecipitationEvents Conditions
12:15 AM 59.0°F 59.0°F 100% 30.32 in 3.0 miles WNW 3.5 mph - 0.01 in Rain Light Rain
12:35 AM 59.0°F 59.0°F 100% 30.32 in 3.0 miles Calm Calm - 0.04 in Rain Light Rain
12:55 AM 57.2°F 57.2°F 100% 30.33 in 2.0 miles WNW 5.8 mph - 0.09 in Rain Light Rain
1:15 AM 57.2°F 57.2°F 100% 30.32 in 2.0 miles Calm Calm - 0.01 in Rain Light Rain
1:35 AM 57.2°F 57.2°F 100% 30.32 in 1.8 miles Calm Calm - 0.02 in Rain Light Rain
1:55 AM 57.2°F 57.2°F 100% 30.34 in 1.8 miles Calm Calm - 0.04 in Rain Light Rain
2:15 AM 55.4°F 55.4°F 100% 30.35 in 2.5 miles Calm Calm - 0.02 in Rain Light Rain
2:35 AM 55.4°F 55.4°F 100% 30.35 in 4.0 miles Calm Calm - 0.03 in Rain Light Rain
2:55 AM 55.4°F 55.4°F 100% 30.35 in 4.0 miles Calm Calm - 0.03 in Rain Light Rain
3:15 AM 55.4°F 55.4°F 100% 30.35 in 2.0 miles Calm Calm - 0.01 in Rain Light Rain
3:35 AM 55.4°F 55.4°F 100% 30.36 in 7.0 miles Calm Calm - 0.01 in Rain Light Rain
3:55 AM 55.4°F 55.4°F 100% 30.36 in 3.0 miles North 4.6 mph - 0.02 in Rain Light Rain
4:15 AM 53.6°F 53.6°F 100% 30.36 in 1.5 miles Calm Calm - 0.01 in Rain Light Rain
4:35 AM 53.6°F 53.6°F 100% 30.37 in 2.5 miles Calm Calm - 0.02 in Rain Light Rain
4:55 AM 51.8°F 51.8°F 100% 30.38 in 9.0 miles Calm Calm - 0.02 in   Overcast
5:15 AM 51.8°F 51.8°F 100% 30.38 in 5.0 miles Calm Calm - N/A Rain Light Rain
5:35 AM 51.8°F 51.8°F 100% 30.38 in 7.0 miles Calm Calm - N/A   Overcast
5:55 AM 51.8°F 51.8°F 100% 30.37 in 7.0 miles Calm Calm - N/A   Mostly Cloudy
6:15 AM 50.0°F 50.0°F 100% 30.37 in 8.0 miles Calm Calm - N/A   Mostly Cloudy
6:35 AM 50.0°F 50.0°F 100% 30.37 in 8.0 miles Calm Calm - N/A   Overcast
6:55 AM 50.0°F 50.0°F 100% 30.37 in 6.0 miles Calm Calm - N/A   Mostly Cloudy
7:15 AM 50.0°F 50.0°F 100% 30.38 in 7.0 miles Calm Calm - N/A   Mostly Cloudy
7:35 AM 50.0°F 50.0°F 100% 30.39 in 6.0 miles Calm Calm - N/A   Mostly Cloudy
7:55 AM 50.0°F 50.0°F 100% 30.38 in 6.0 miles Calm Calm - N/A   Mostly Cloudy
8:15 AM 50.0°F 50.0°F 100% 30.38 in 4.0 miles Calm Calm - N/A   Scattered Clouds
8:35 AM 50.0°F 50.0°F 100% 30.37 in 7.0 miles Calm Calm - N/A   Mostly Cloudy
8:55 AM 51.8°F 51.8°F 100% 30.39 in 8.0 miles Calm Calm - N/A   Overcast
9:15 AM 51.8°F 50.0°F 94% 30.39 in 9.0 miles Calm Calm - N/A   Mostly Cloudy
9:35 AM 53.6°F 50.0°F 88% 30.39 in 9.0 miles Calm Calm - N/A   Clear
9:55 AM 53.6°F 50.0°F 88% 30.38 in 10.0 miles Calm Calm - N/A   Clear
10:15 AM 55.4°F 50.0°F 82% 30.38 in 10.0 miles Calm Calm - N/A   Partly Cloudy
10:35 AM 55.4°F 48.2°F 77% 30.39 in 10.0 miles Calm Calm - N/A   Scattered Clouds
10:55 AM 57.2°F 46.4°F 67% 30.38 in 10.0 miles Calm Calm - N/A   Partly Cloudy
11:15 AM 57.2°F 46.4°F 67% 30.38 in 10.0 miles Calm Calm - N/A   Clear
11:35 AM 57.2°F 44.6°F 63% 30.39 in 10.0 miles NE 4.6 mph - N/A   Clear
11:55 AM 57.2°F 44.6°F 63% 30.38 in 10.0 miles Calm Calm - N/A   Clear
12:15 PM 59.0°F 44.6°F 59% 30.37 in 10.0 miles Calm Calm - N/A   Clear
12:35 PM 59.0°F 42.8°F 55% 30.36 in 10.0 miles Calm Calm - N/A   Clear
12:55 PM 59.0°F 41.0°F 51% 30.36 in 10.0 miles ENE 4.6 mph - N/A   Clear
1:15 PM 59.0°F 39.2°F 48% 30.35 in 10.0 miles Calm Calm - N/A   Partly Cloudy
1:35 PM 59.0°F 39.2°F 48% 30.35 in 10.0 miles Calm Calm - N/A   Clear
1:55 PM 59.0°F 39.2°F 48% 30.34 in 10.0 miles North 3.5 mph - N/A   Clear
2:15 PM 59.0°F 39.2°F 48% 30.34 in 10.0 miles Calm Calm - N/A   Clear
2:35 PM 59.0°F 41.0°F 51% 30.32 in 10.0 miles Calm Calm - N/A   Clear
2:55 PM 57.2°F 41.0°F 55% 30.32 in 10.0 miles Calm Calm - N/A   Clear
3:15 PM 57.2°F 42.8°F 59% 30.31 in 10.0 miles Calm Calm - N/A   Clear
3:35 PM 57.2°F 42.8°F 59% 30.31 in 10.0 miles Calm Calm - N/A   Clear
3:55 PM 55.4°F 42.8°F 63% 30.31 in 10.0 miles Calm Calm - N/A   Clear
4:15 PM 55.4°F 44.6°F 67% 30.30 in 10.0 miles Calm Calm - N/A   Clear
4:35 PM 53.6°F 44.6°F 72% 30.30 in 10.0 miles Calm Calm - N/A   Clear
4:55 PM 51.8°F 44.6°F 76% 30.30 in 10.0 miles North 3.5 mph - N/A   Clear
5:15 PM 50.0°F 44.6°F 82% 30.29 in 10.0 miles Calm Calm - N/A   Clear
5:35 PM 48.2°F 44.6°F 87% 30.28 in 10.0 miles Calm Calm - N/A   Clear
5:55 PM 46.4°F 44.6°F 93% 30.28 in 10.0 miles Calm Calm - N/A   Clear
6:15 PM 46.4°F 44.6°F 93% 30.28 in 10.0 miles Calm Calm - N/A   Clear
6:35 PM 46.4°F 44.6°F 93% 30.28 in 10.0 miles Calm Calm - N/A   Clear
6:55 PM 44.6°F 44.6°F 100% 30.26 in 10.0 miles Calm Calm - N/A   Clear
7:15 PM 44.6°F 44.6°F 100% 30.26 in 10.0 miles Calm Calm - N/A   Clear
7:35 PM 44.6°F 44.6°F 100% 30.25 in 10.0 miles Calm Calm - N/A   Clear
7:55 PM 44.6°F 44.6°F 100% 30.25 in 10.0 miles Calm Calm - N/A   Clear
8:15 PM 44.6°F 44.6°F 100% 30.24 in 10.0 miles Calm Calm - N/A   Clear
8:35 PM 44.6°F 44.6°F 100% 30.23 in 10.0 miles Calm Calm - N/A   Clear
8:55 PM 44.6°F 44.6°F 100% 30.23 in 10.0 miles Calm Calm - N/A   Clear
9:15 PM 44.6°F 44.6°F 100% 30.22 in 10.0 miles Calm Calm - N/A   Clear
9:35 PM 42.8°F 42.8°F 100% 30.22 in 7.0 miles Calm Calm - N/A   Clear
9:55 PM 42.8°F 42.8°F 100% 30.20 in 8.0 miles Calm Calm - N/A   Clear
10:15 PM 44.6°F 44.6°F 100% 30.19 in 8.0 miles Calm Calm - N/A   Clear
10:35 PM 41.0°F 41.0°F 100% 30.20 in 5.0 miles Calm Calm - N/A   Clear
10:55 PM 41.0°F 41.0°F 100% 30.19 in 6.0 miles Calm Calm - N/A   Clear
11:15 PM 42.8°F 42.8°F 100% 30.18 in 7.0 miles Calm Calm - N/A   Clear
11:35 PM 41.0°F 41.0°F 100% 30.17 in 4.0 miles Calm Calm - N/A   Clear
11:55 PM 41.0°F 41.0°F 100% 30.17 in 5.0 miles Calm Calm - N/A   Partly Cloudy
Moon Phase
Nov. 05 Nov. 06 Nov. 13 Nov. 20 Nov. 28
Sunrise:06:58 AM (PST) Moon Rise:10:29 PM (PST)11/5
Sunset:04:45 PM (PST) Moon Set:12:21 PM (PST)11/5

Copyright © 2014 The Weather Underground, Inc.